Year,Month,Day,Hour,Minute,Value (Times are PST for windgust in km/hr)
2011,11,20,00,00,6.40
2011,11,20,00,01,3.20
2011,11,20,00,04,1.60
2011,11,20,00,05,1.60
2011,11,20,00,11,3.20
2011,11,20,00,12,3.20
2011,11,20,00,13,3.20
2011,11,20,00,16,3.20
2011,11,20,00,17,3.20
2011,11,20,00,18,3.20
2011,11,20,00,19,3.20
2011,11,20,00,20,3.20
2011,11,20,00,21,3.20
2011,11,20,00,22,3.20
2011,11,20,00,23,1.60
2011,11,20,00,24,1.60
2011,11,20,00,25,3.20
2011,11,20,00,26,3.20
2011,11,20,00,27,3.20
2011,11,20,00,28,3.20
2011,11,20,00,29,3.20
2011,11,20,00,30,1.60
2011,11,20,00,31,3.20
2011,11,20,00,32,3.20
2011,11,20,00,33,3.20
2011,11,20,00,34,3.20
2011,11,20,00,35,3.20
2011,11,20,00,36,3.20
2011,11,20,00,37,3.20
2011,11,20,00,38,1.60
2011,11,20,00,39,3.20
2011,11,20,00,40,1.60
2011,11,20,00,41,1.60
2011,11,20,00,58,1.60
2011,11,20,01,00,1.60
2011,11,20,01,46,3.20
2011,11,20,01,47,3.20
2011,11,20,01,48,1.60
2011,11,20,01,49,3.20
2011,11,20,01,50,3.20
2011,11,20,01,51,1.60
2011,11,20,01,54,3.20
2011,11,20,01,55,3.20
2011,11,20,01,56,3.20
2011,11,20,01,57,1.60
2011,11,20,02,03,3.20
2011,11,20,02,04,1.60
2011,11,20,02,05,1.60
2011,11,20,02,06,1.60
2011,11,20,02,07,3.20
2011,11,20,02,08,3.20
2011,11,20,02,09,3.20
2011,11,20,02,10,3.20
2011,11,20,02,11,3.20
2011,11,20,02,14,1.60
2011,11,20,02,21,1.60
2011,11,20,02,49,1.60
2011,11,20,02,50,1.60
2011,11,20,02,51,3.20
2011,11,20,02,52,1.60
2011,11,20,02,56,3.20
2011,11,20,02,57,6.40
2011,11,20,02,58,3.20
2011,11,20,02,59,3.20
2011,11,20,03,00,1.60
2011,11,20,03,03,3.20
2011,11,20,03,04,3.20
2011,11,20,03,05,3.20
2011,11,20,03,06,3.20
2011,11,20,03,07,3.20
2011,11,20,03,08,3.20
2011,11,20,03,09,1.60
2011,11,20,03,10,1.60
2011,11,20,03,11,1.60
2011,11,20,03,16,1.60
2011,11,20,03,17,3.20
2011,11,20,03,18,3.20
2011,11,20,03,19,3.20
2011,11,20,03,20,6.40
2011,11,20,03,21,3.20
2011,11,20,03,22,3.20
2011,11,20,03,45,1.60
2011,11,20,03,48,1.60
2011,11,20,03,49,3.20
2011,11,20,03,50,1.60
2011,11,20,03,51,1.60
2011,11,20,03,59,1.60
2011,11,20,04,00,1.60
2011,11,20,04,03,1.60
2011,11,20,04,09,1.60
2011,11,20,04,11,3.20
2011,11,20,04,12,3.20
2011,11,20,04,13,3.20
2011,11,20,04,15,3.20
2011,11,20,04,16,3.20
2011,11,20,04,17,3.20
2011,11,20,04,19,1.60
2011,11,20,04,21,1.60
2011,11,20,04,22,3.20
2011,11,20,04,23,1.60
2011,11,20,04,26,1.60
2011,11,20,04,29,1.60
2011,11,20,04,31,3.20
2011,11,20,04,33,3.20
2011,11,20,04,34,1.60
2011,11,20,04,36,1.60
2011,11,20,04,37,3.20
2011,11,20,04,38,3.20
2011,11,20,04,39,3.20
2011,11,20,04,40,1.60
2011,11,20,04,43,1.60
2011,11,20,04,48,1.60
2011,11,20,05,28,1.60
2011,11,20,05,31,1.60
2011,11,20,05,32,1.60
2011,11,20,05,33,1.60
2011,11,20,05,34,3.20
2011,11,20,05,35,3.20
2011,11,20,05,37,3.20
2011,11,20,05,38,3.20
2011,11,20,05,39,1.60
2011,11,20,05,40,3.20
2011,11,20,05,54,3.20
2011,11,20,05,55,3.20
2011,11,20,06,02,1.60
2011,11,20,06,03,3.20
2011,11,20,06,04,3.20
2011,11,20,06,05,3.20
2011,11,20,06,06,3.20
2011,11,20,06,07,3.20
2011,11,20,06,08,1.60
2011,11,20,06,27,1.60
2011,11,20,06,28,1.60
2011,11,20,06,29,1.60
2011,11,20,06,35,1.60
2011,11,20,06,45,1.60
2011,11,20,06,46,1.60
2011,11,20,06,55,1.60
2011,11,20,07,04,3.20
2011,11,20,07,05,3.20
2011,11,20,07,06,3.20
2011,11,20,07,07,1.60
2011,11,20,07,09,1.60
2011,11,20,07,10,1.60
2011,11,20,07,11,1.60
2011,11,20,07,29,1.60
2011,11,20,07,32,1.60
2011,11,20,07,37,1.60
2011,11,20,07,39,1.60
2011,11,20,07,59,1.60
2011,11,20,08,00,4.80
2011,11,20,08,01,1.60
2011,11,20,08,03,1.60
2011,11,20,08,05,1.60
2011,11,20,08,08,1.60
2011,11,20,08,09,1.60
2011,11,20,08,12,1.60
2011,11,20,08,13,1.60
2011,11,20,08,14,1.60
2011,11,20,08,15,3.20
2011,11,20,08,16,3.20
2011,11,20,08,17,1.60
2011,11,20,08,18,1.60
2011,11,20,08,19,6.40
2011,11,20,08,20,6.40
2011,11,20,08,21,3.20
2011,11,20,08,22,3.20
2011,11,20,08,23,1.60
2011,11,20,08,25,1.60
2011,11,20,08,29,1.60
2011,11,20,08,30,1.60
2011,11,20,08,42,1.60
2011,11,20,08,44,3.20
2011,11,20,08,46,3.20
2011,11,20,09,55,1.60
2011,11,20,09,56,1.60
2011,11,20,09,58,1.60
2011,11,20,10,01,1.60
2011,11,20,10,02,4.80
2011,11,20,10,03,4.80
2011,11,20,10,04,1.60
2011,11,20,10,41,1.60
2011,11,20,10,57,1.60
2011,11,20,10,58,4.80
2011,11,20,10,59,3.20
2011,11,20,11,01,1.60
2011,11,20,11,15,1.60
2011,11,20,11,47,1.60
2011,11,20,11,48,1.60
2011,11,20,11,53,3.20
2011,11,20,11,54,3.20
2011,11,20,11,57,3.20
2011,11,20,11,58,1.60
2011,11,20,12,00,3.20
2011,11,20,12,01,4.80
2011,11,20,12,02,3.20
2011,11,20,12,04,1.60
2011,11,20,12,05,3.20
2011,11,20,12,06,1.60
2011,11,20,12,07,1.60
2011,11,20,12,08,4.80
2011,11,20,12,09,4.80
2011,11,20,12,10,4.80
2011,11,20,12,11,3.20
2011,11,20,12,12,6.40
2011,11,20,12,20,1.60
2011,11,20,12,22,1.60
2011,11,20,12,34,1.60
2011,11,20,12,38,3.20
2011,11,20,12,39,3.20
2011,11,20,12,41,6.40
2011,11,20,12,42,4.80
2011,11,20,12,51,1.60
2011,11,20,12,52,3.20
2011,11,20,12,53,3.20
2011,11,20,12,54,3.20
2011,11,20,12,55,1.60
2011,11,20,12,57,6.40
2011,11,20,13,01,1.60
2011,11,20,13,06,3.20
2011,11,20,13,07,1.60
2011,11,20,13,09,1.60
2011,11,20,13,10,3.20
2011,11,20,13,11,1.60
2011,11,20,13,12,1.60
2011,11,20,13,14,1.60
2011,11,20,13,29,4.80
2011,11,20,13,30,4.80
2011,11,20,13,35,6.40
2011,11,20,13,36,4.80
2011,11,20,13,37,6.40
2011,11,20,13,38,1.60
2011,11,20,13,39,1.60
2011,11,20,13,49,1.60
2011,11,20,13,51,1.60
2011,11,20,13,52,1.60
2011,11,20,13,55,1.60
2011,11,20,13,56,3.20
2011,11,20,13,57,1.60
2011,11,20,13,58,1.60
2011,11,20,14,01,1.60
2011,11,20,14,02,1.60
2011,11,20,14,03,1.60
2011,11,20,14,04,3.20
2011,11,20,14,05,1.60
2011,11,20,14,06,1.60
2011,11,20,14,07,3.20
2011,11,20,14,08,1.60
2011,11,20,14,09,3.20
2011,11,20,14,11,1.60
2011,11,20,14,12,1.60
2011,11,20,14,13,4.80
2011,11,20,14,16,3.20
2011,11,20,14,17,3.20
2011,11,20,14,18,3.20
2011,11,20,14,19,3.20
2011,11,20,14,20,1.60
2011,11,20,14,21,1.60
2011,11,20,14,22,1.60
2011,11,20,14,27,1.60
2011,11,20,14,28,1.60
2011,11,20,14,34,1.60
2011,11,20,14,35,3.20
2011,11,20,14,38,6.40
2011,11,20,14,41,1.60
2011,11,20,14,42,4.80
2011,11,20,14,43,1.60
2011,11,20,14,44,3.20
2011,11,20,14,45,4.80
2011,11,20,14,46,9.60
2011,11,20,14,47,3.20
2011,11,20,14,48,4.80
2011,11,20,14,49,3.20
2011,11,20,14,50,4.80
2011,11,20,14,51,1.60
2011,11,20,14,52,6.40
2011,11,20,14,53,6.40
2011,11,20,14,54,8.10
2011,11,20,14,55,1.60
2011,11,20,14,56,1.60
2011,11,20,14,58,1.60
2011,11,20,14,59,3.20
2011,11,20,15,00,6.40
2011,11,20,15,01,6.40
2011,11,20,15,02,3.20
2011,11,20,15,03,3.20
2011,11,20,15,04,1.60
2011,11,20,15,06,1.60
2011,11,20,15,08,1.60
2011,11,20,15,09,1.60
2011,11,20,15,10,1.60
2011,11,20,15,12,1.60
2011,11,20,15,13,6.40
2011,11,20,15,14,6.40
2011,11,20,15,16,3.20
2011,11,20,15,17,1.60
2011,11,20,15,18,1.60
2011,11,20,15,21,1.60
2011,11,20,15,22,6.40
2011,11,20,15,26,3.20
2011,11,20,15,27,1.60
2011,11,20,15,31,4.80
2011,11,20,15,32,3.20
2011,11,20,15,33,3.20
2011,11,20,15,37,1.60
2011,11,20,15,38,1.60
2011,11,20,15,39,3.20
2011,11,20,15,40,6.40
2011,11,20,15,41,1.60
2011,11,20,15,42,1.60
2011,11,20,15,45,1.60
2011,11,20,15,46,1.60
2011,11,20,15,47,3.20
2011,11,20,15,48,3.20
2011,11,20,15,49,1.60
2011,11,20,15,52,1.60
2011,11,20,15,55,3.20
2011,11,20,15,56,3.20
2011,11,20,16,00,1.60
2011,11,20,16,01,6.40
2011,11,20,16,04,1.60
2011,11,20,16,05,1.60
2011,11,20,16,06,6.40
2011,11,20,16,07,6.40
2011,11,20,16,08,1.60
2011,11,20,16,09,3.20
2011,11,20,16,10,3.20
2011,11,20,16,11,8.10
2011,11,20,16,12,8.10
2011,11,20,16,13,11.30
2011,11,20,16,14,9.60
2011,11,20,16,15,6.40
2011,11,20,16,16,3.20
2011,11,20,16,17,3.20
2011,11,20,16,18,1.60
2011,11,20,16,19,6.40
2011,11,20,16,20,3.20
2011,11,20,16,21,6.40
2011,11,20,16,22,6.40
2011,11,20,16,23,6.40
2011,11,20,16,24,6.40
2011,11,20,16,25,6.40
2011,11,20,16,26,6.40
2011,11,20,16,27,3.20
2011,11,20,16,28,3.20
2011,11,20,16,30,1.60
2011,11,20,16,31,6.40
2011,11,20,16,32,4.80
2011,11,20,16,33,3.20
2011,11,20,16,34,3.20
2011,11,20,16,35,3.20
2011,11,20,16,36,4.80
2011,11,20,16,37,3.20
2011,11,20,16,40,1.60
2011,11,20,16,41,3.20
2011,11,20,16,42,8.10
2011,11,20,16,43,3.20
2011,11,20,16,44,6.40
2011,11,20,16,45,1.60
2011,11,20,16,46,1.60
2011,11,20,16,48,6.40
2011,11,20,16,49,6.40
2011,11,20,16,50,6.40
2011,11,20,16,52,6.40
2011,11,20,16,53,1.60
2011,11,20,16,54,1.60
2011,11,20,16,57,1.60
2011,11,20,16,58,6.40
2011,11,20,16,59,6.40
2011,11,20,17,00,1.60
2011,11,20,17,06,1.60
2011,11,20,17,08,3.20
2011,11,20,17,09,3.20
2011,11,20,17,10,3.20
2011,11,20,17,11,1.60
2011,11,20,17,14,3.20
2011,11,20,17,15,1.60
2011,11,20,17,17,1.60
2011,11,20,17,19,1.60
2011,11,20,17,25,1.60
2011,11,20,17,28,1.60
2011,11,20,17,29,3.20
2011,11,20,17,31,3.20
2011,11,20,17,32,6.40
2011,11,20,17,34,3.20
2011,11,20,17,35,4.80
2011,11,20,17,36,6.40
2011,11,20,17,37,6.40
2011,11,20,17,38,3.20
2011,11,20,17,39,3.20
2011,11,20,17,40,3.20
2011,11,20,17,41,1.60
2011,11,20,17,42,3.20
2011,11,20,17,43,3.20
2011,11,20,17,44,4.80
2011,11,20,17,45,8.10
2011,11,20,17,46,6.40
2011,11,20,17,47,4.80
2011,11,20,17,48,8.10
2011,11,20,17,49,4.80
2011,11,20,17,50,6.40
2011,11,20,17,51,6.40
2011,11,20,17,52,8.10
2011,11,20,17,53,6.40
2011,11,20,17,54,8.10
2011,11,20,17,55,8.10
2011,11,20,17,56,8.10
2011,11,20,17,57,6.40
2011,11,20,17,58,6.40
2011,11,20,17,59,11.30
2011,11,20,18,00,9.60
2011,11,20,18,01,6.40
2011,11,20,18,02,6.40
2011,11,20,18,03,6.40
2011,11,20,18,04,6.40
2011,11,20,18,05,6.40
2011,11,20,18,06,8.10
2011,11,20,18,07,8.10
2011,11,20,18,08,3.20
2011,11,20,18,09,6.40
2011,11,20,18,10,9.60
2011,11,20,18,11,8.10
2011,11,20,18,12,6.40
2011,11,20,18,13,3.20
2011,11,20,18,14,4.80
2011,11,20,18,15,3.20
2011,11,20,18,16,8.10
2011,11,20,18,17,6.40
2011,11,20,18,18,4.80
2011,11,20,18,19,8.10
2011,11,20,18,20,8.10
2011,11,20,18,21,1.60
2011,11,20,18,22,3.20
2011,11,20,18,23,1.60
2011,11,20,18,25,9.60
2011,11,20,18,26,8.10
2011,11,20,18,27,4.80
2011,11,20,18,28,1.60
2011,11,20,18,29,1.60
2011,11,20,18,30,6.40
2011,11,20,18,31,6.40
2011,11,20,18,32,8.10
2011,11,20,18,33,11.30
2011,11,20,18,34,9.60
2011,11,20,18,35,6.40
2011,11,20,18,36,3.20
2011,11,20,18,37,1.60
2011,11,20,18,38,1.60
2011,11,20,18,39,3.20
2011,11,20,18,40,4.80
2011,11,20,18,41,4.80
2011,11,20,18,42,6.40
2011,11,20,18,43,4.80
2011,11,20,18,44,3.20
2011,11,20,18,45,6.40
2011,11,20,18,46,4.80
2011,11,20,18,47,14.50
2011,11,20,18,48,8.10
2011,11,20,18,49,6.40
2011,11,20,18,50,6.40
2011,11,20,18,51,1.60
2011,11,20,18,52,1.60
2011,11,20,18,53,6.40
2011,11,20,18,54,3.20
2011,11,20,18,55,1.60
2011,11,20,18,56,1.60
2011,11,20,18,58,3.20
2011,11,20,18,59,1.60
2011,11,20,19,00,1.60
2011,11,20,19,01,1.60
2011,11,20,19,02,3.20
2011,11,20,19,03,3.20
2011,11,20,19,04,3.20
2011,11,20,19,05,3.20
2011,11,20,19,06,3.20
2011,11,20,19,07,3.20
2011,11,20,19,08,3.20
2011,11,20,19,09,3.20
2011,11,20,19,10,1.60
2011,11,20,19,11,1.60
2011,11,20,19,12,1.60
2011,11,20,19,13,1.60
2011,11,20,19,14,1.60
2011,11,20,19,16,1.60
2011,11,20,19,17,4.80
2011,11,20,19,18,1.60
2011,11,20,19,19,3.20
2011,11,20,19,20,9.60
2011,11,20,19,21,6.40
2011,11,20,19,22,8.10
2011,11,20,19,23,8.10
2011,11,20,19,24,4.80
2011,11,20,19,25,4.80
2011,11,20,19,26,6.40
2011,11,20,19,27,6.40
2011,11,20,19,28,3.20
2011,11,20,19,29,3.20
2011,11,20,19,30,1.60
2011,11,20,19,31,3.20
2011,11,20,19,32,6.40
2011,11,20,19,33,6.40
2011,11,20,19,34,4.80
2011,11,20,19,37,6.40
2011,11,20,19,38,6.40
2011,11,20,19,39,6.40
2011,11,20,19,40,3.20
2011,11,20,19,41,4.80
2011,11,20,19,42,1.60
2011,11,20,19,43,4.80
2011,11,20,19,44,3.20
2011,11,20,19,45,3.20
2011,11,20,19,46,3.20
2011,11,20,19,47,4.80
2011,11,20,19,48,6.40
2011,11,20,19,49,1.60
2011,11,20,19,50,4.80
2011,11,20,19,51,4.80
2011,11,20,19,52,1.60
2011,11,20,19,53,1.60
2011,11,20,19,54,3.20
2011,11,20,19,55,3.20
2011,11,20,19,56,3.20
2011,11,20,19,57,3.20
2011,11,20,19,58,6.40
2011,11,20,19,59,6.40
2011,11,20,20,00,6.40
2011,11,20,20,01,3.20
2011,11,20,20,02,6.40
2011,11,20,20,03,9.60
2011,11,20,20,04,3.20
2011,11,20,20,06,1.60
2011,11,20,20,07,1.60
2011,11,20,20,08,1.60
2011,11,20,20,09,3.20
2011,11,20,20,10,3.20
2011,11,20,20,11,4.80
2011,11,20,20,12,9.60
2011,11,20,20,13,8.10
2011,11,20,20,14,6.40
2011,11,20,20,15,3.20
2011,11,20,20,16,3.20
2011,11,20,20,17,1.60
2011,11,20,20,19,1.60
2011,11,20,20,20,3.20
2011,11,20,20,21,4.80
2011,11,20,20,23,9.60
2011,11,20,20,24,11.30
2011,11,20,20,25,3.20
2011,11,20,20,26,3.20
2011,11,20,20,27,6.40
2011,11,20,20,28,9.60
2011,11,20,20,29,4.80
2011,11,20,20,30,1.60
2011,11,20,20,31,1.60
2011,11,20,20,32,6.40
2011,11,20,20,33,6.40
2011,11,20,20,34,9.60
2011,11,20,20,35,9.60
2011,11,20,20,36,8.10
2011,11,20,20,37,6.40
2011,11,20,20,38,8.10
2011,11,20,20,39,6.40
2011,11,20,20,40,1.60
2011,11,20,20,41,3.20
2011,11,20,20,42,6.40
2011,11,20,20,43,3.20
2011,11,20,20,44,1.60
2011,11,20,20,46,4.80
2011,11,20,20,47,3.20
2011,11,20,20,48,6.40
2011,11,20,20,49,6.40
2011,11,20,20,50,3.20
2011,11,20,20,51,1.60
2011,11,20,20,52,3.20
2011,11,20,20,53,4.80
2011,11,20,20,54,6.40
2011,11,20,20,55,3.20
2011,11,20,20,56,4.80
2011,11,20,20,57,6.40
2011,11,20,20,58,3.20
2011,11,20,20,59,6.40
2011,11,20,21,00,8.10
2011,11,20,21,01,3.20
2011,11,20,21,02,4.80
2011,11,20,21,03,9.60
2011,11,20,21,04,4.80
2011,11,20,21,05,3.20
2011,11,20,21,07,3.20
2011,11,20,21,08,9.60
2011,11,20,21,09,3.20
2011,11,20,21,10,3.20
2011,11,20,21,11,4.80
2011,11,20,21,12,6.40
2011,11,20,21,14,6.40
2011,11,20,21,15,12.90
2011,11,20,21,16,12.90
2011,11,20,21,17,4.80
2011,11,20,21,18,4.80
2011,11,20,21,19,4.80
2011,11,20,21,21,3.20
2011,11,20,21,22,3.20
2011,11,20,21,23,11.30
2011,11,20,21,24,11.30
2011,11,20,21,25,11.30
2011,11,20,21,26,4.80
2011,11,20,21,27,12.90
2011,11,20,21,28,6.40
2011,11,20,21,29,8.10
2011,11,20,21,30,8.10
2011,11,20,21,31,9.60
2011,11,20,21,32,9.60
2011,11,20,21,33,9.60
2011,11,20,21,34,8.10
2011,11,20,21,35,6.40
2011,11,20,21,36,8.10
2011,11,20,21,37,11.30
2011,11,20,21,38,9.60
2011,11,20,21,39,6.40
2011,11,20,21,40,9.60
2011,11,20,21,41,14.50
2011,11,20,21,42,19.30
2011,11,20,21,43,17.70
2011,11,20,21,44,6.40
2011,11,20,21,45,8.10
2011,11,20,21,46,4.80
2011,11,20,21,47,17.70
2011,11,20,21,48,20.90
2011,11,20,21,49,8.10
2011,11,20,21,50,9.60
2011,11,20,21,51,6.40
2011,11,20,21,52,11.30
2011,11,20,21,53,4.80
2011,11,20,21,54,6.40
2011,11,20,21,55,8.10
2011,11,20,21,56,6.40
2011,11,20,21,57,11.30
2011,11,20,21,58,4.80
2011,11,20,21,59,16.10
2011,11,20,22,00,17.70
2011,11,20,22,01,17.70
2011,11,20,22,02,16.10
2011,11,20,22,03,8.10
2011,11,20,22,04,11.30
2011,11,20,22,05,11.30
2011,11,20,22,06,19.30
2011,11,20,22,07,19.30
2011,11,20,22,08,14.50
2011,11,20,22,09,14.50
2011,11,20,22,10,16.10
2011,11,20,22,11,16.10
2011,11,20,22,12,11.30
2011,11,20,22,13,9.60
2011,11,20,22,14,14.50
2011,11,20,22,15,9.60
2011,11,20,22,16,8.10
2011,11,20,22,17,12.90
2011,11,20,22,18,14.50
2011,11,20,22,19,8.10
2011,11,20,22,20,14.50
2011,11,20,22,21,14.50
2011,11,20,22,22,12.90
2011,11,20,22,23,8.10
2011,11,20,22,24,14.50
2011,11,20,22,25,11.30
2011,11,20,22,26,12.90
2011,11,20,22,27,17.70
2011,11,20,22,28,8.10
2011,11,20,22,29,11.30
2011,11,20,22,30,8.10
2011,11,20,22,31,14.50
2011,11,20,22,32,12.90
2011,11,20,22,33,12.90
2011,11,20,22,34,19.30
2011,11,20,22,35,17.70
2011,11,20,22,36,12.90
2011,11,20,22,37,6.40
2011,11,20,22,38,19.30
2011,11,20,22,39,12.90
2011,11,20,22,40,9.60
2011,11,20,22,41,11.30
2011,11,20,22,42,19.30
2011,11,20,22,43,20.90
2011,11,20,22,44,12.90
2011,11,20,22,45,12.90
2011,11,20,22,46,22.50
2011,11,20,22,47,16.10
2011,11,20,22,48,11.30
2011,11,20,22,49,32.20
2011,11,20,22,50,19.30
2011,11,20,22,51,9.60
2011,11,20,22,52,12.90
2011,11,20,22,53,12.90
2011,11,20,22,54,19.30
2011,11,20,22,55,27.40
2011,11,20,22,56,16.10
2011,11,20,22,57,20.90
2011,11,20,22,58,17.70
2011,11,20,22,59,14.50
2011,11,20,23,00,17.70
2011,11,20,23,01,22.50
2011,11,20,23,02,12.90
2011,11,20,23,03,16.10
2011,11,20,23,04,9.60
2011,11,20,23,05,14.50
2011,11,20,23,06,16.10
2011,11,20,23,07,16.10
2011,11,20,23,08,12.90
2011,11,20,23,09,24.20
2011,11,20,23,10,14.50
2011,11,20,23,11,16.10
2011,11,20,23,12,11.30
2011,11,20,23,13,8.10
2011,11,20,23,14,8.10
2011,11,20,23,15,9.60
2011,11,20,23,16,17.70
2011,11,20,23,17,17.70
2011,11,20,23,18,16.10
2011,11,20,23,19,12.90
2011,11,20,23,20,6.40
2011,11,20,23,21,17.70
2011,11,20,23,22,24.20
2011,11,20,23,23,16.10
2011,11,20,23,24,14.50
2011,11,20,23,25,11.30
2011,11,20,23,26,14.50
2011,11,20,23,27,16.10
2011,11,20,23,28,20.90
2011,11,20,23,29,9.60
2011,11,20,23,30,6.40
2011,11,20,23,31,6.40
2011,11,20,23,32,17.70
2011,11,20,23,33,11.30
2011,11,20,23,34,12.90
2011,11,20,23,35,9.60
2011,11,20,23,36,8.10
2011,11,20,23,37,9.60
2011,11,20,23,38,8.10
2011,11,20,23,39,9.60
2011,11,20,23,40,9.60
2011,11,20,23,41,12.90
2011,11,20,23,42,12.90
2011,11,20,23,43,6.40
2011,11,20,23,44,8.10
2011,11,20,23,45,9.60
2011,11,20,23,46,6.40
2011,11,20,23,47,6.40
2011,11,20,23,48,6.40
2011,11,20,23,49,8.10
2011,11,20,23,50,20.90
2011,11,20,23,51,11.30
2011,11,20,23,52,20.90
2011,11,20,23,53,12.90
2011,11,20,23,54,6.40
2011,11,20,23,55,11.30
2011,11,20,23,56,20.90
2011,11,20,23,57,30.60
2011,11,20,23,58,24.20
2011,11,20,23,59,29.00
